Time,TemperatureF,DewpointF,PressureIn,WindDirection,WindDirectionDegrees,WindSpeedMPH,WindSpeedGustMPH,Humidity,HourlyPrecipIn,Conditions,Clouds,dailyrainin,SoftwareType,DateUTC
2013-07-04 00:01:00,76.0,49.0,29.64,NNE,25,0.0,4.0,38,0.00,,,0.00,,2013-07-04 06:01:00,
2013-07-04 00:11:00,74.0,49.0,29.63,NNE,25,1.0,4.0,42,0.00,,,0.00,,2013-07-04 06:11:00,
2013-07-04 00:22:00,73.0,50.0,29.63,NNE,25,0.0,3.0,44,0.00,,,0.00,,2013-07-04 06:22:00,
2013-07-04 00:34:00,73.0,50.0,29.63,NNE,25,0.0,3.0,44,0.00,,,0.00,,2013-07-04 06:34:00,
2013-07-04 00:43:00,72.0,48.0,29.63,NNE,25,0.0,0.0,43,0.00,,,0.00,,2013-07-04 06:43:00,
2013-07-04 00:52:00,72.0,49.0,29.64,NNE,25,0.0,1.0,44,0.00,,,0.00,,2013-07-04 06:52:00,
2013-07-04 01:02:00,72.0,49.0,29.64,NNE,25,0.0,1.0,44,0.00,,,0.00,,2013-07-04 07:02:00,
2013-07-04 01:12:00,71.0,48.0,29.63,NNE,25,1.0,4.0,44,0.00,,,0.00,,2013-07-04 07:12:00,
2013-07-04 01:22:00,71.0,49.0,29.63,NNE,25,0.0,4.0,46,0.00,,,0.00,,2013-07-04 07:22:00,
2013-07-04 01:34:00,71.0,49.0,29.63,NNE,25,0.0,4.0,46,0.00,,,0.00,,2013-07-04 07:34:00,
2013-07-04 01:43:00,70.0,49.0,29.64,NNE,25,0.0,4.0,47,0.00,,,0.00,,2013-07-04 07:43:00,
2013-07-04 01:52:00,70.0,50.0,29.64,NNE,25,0.0,3.0,50,0.00,,,0.00,,2013-07-04 07:52:00,
2013-07-04 02:02:00,70.0,50.0,29.64,NNE,25,0.0,3.0,50,0.00,,,0.00,,2013-07-04 08:02:00,
2013-07-04 02:11:00,69.0,51.0,29.63,NNE,25,4.0,5.0,53,0.00,,,0.00,,2013-07-04 08:11:00,
2013-07-04 02:22:00,68.0,50.0,29.63,NNE,25,0.0,1.0,53,0.00,,,0.00,,2013-07-04 08:22:00,
2013-07-04 02:33:00,68.0,50.0,29.63,NNE,25,0.0,1.0,53,0.00,,,0.00,,2013-07-04 08:33:00,
2013-07-04 02:42:00,68.0,51.0,29.63,NNE,25,1.0,5.0,55,0.00,,,0.00,,2013-07-04 08:42:00,
2013-07-04 02:52:00,68.0,51.0,29.64,NNE,25,0.0,1.0,54,0.00,,,0.00,,2013-07-04 08:52:00,
2013-07-04 03:02:00,68.0,51.0,29.64,NNE,25,0.0,1.0,54,0.00,,,0.00,,2013-07-04 09:02:00,
2013-07-04 03:11:00,67.0,51.0,29.63,NNE,25,0.0,0.0,56,0.00,,,0.00,,2013-07-04 09:11:00,
2013-07-04 03:22:00,67.0,51.0,29.64,NNE,25,0.0,0.0,56,0.00,,,0.00,,2013-07-04 09:22:00,
2013-07-04 03:32:00,67.0,51.0,29.64,NNE,25,0.0,0.0,56,0.00,,,0.00,,2013-07-04 09:32:00,
2013-07-04 03:42:00,67.0,52.0,29.64,NNE,25,2.0,6.0,58,0.00,,,0.00,,2013-07-04 09:42:00,
2013-07-04 03:52:00,66.0,51.0,29.64,NNE,25,0.0,1.0,59,0.00,,,0.00,,2013-07-04 09:52:00,
2013-07-04 04:01:00,66.0,51.0,29.64,NNE,25,0.0,1.0,59,0.00,,,0.00,,2013-07-04 10:01:00,
2013-07-04 04:11:00,66.0,52.0,29.64,NNE,25,0.0,0.0,60,0.00,,,0.00,,2013-07-04 10:11:00,
2013-07-04 04:22:00,65.0,51.0,29.64,NNE,25,0.0,3.0,61,0.00,,,0.00,,2013-07-04 10:22:00,
2013-07-04 04:33:00,65.0,51.0,29.64,NNE,25,0.0,3.0,61,0.00,,,0.00,,2013-07-04 10:33:00,
2013-07-04 04:42:00,64.0,51.0,29.64,NNE,25,0.0,5.0,62,0.00,,,0.00,,2013-07-04 10:42:00,
2013-07-04 04:53:00,64.0,51.0,29.64,NNE,25,0.0,5.0,63,0.00,,,0.00,,2013-07-04 10:53:00,
2013-07-04 05:02:00,64.0,51.0,29.64,NNE,25,0.0,5.0,63,0.00,,,0.00,,2013-07-04 11:02:00,
2013-07-04 05:11:00,64.0,52.0,29.65,NNE,25,0.0,1.0,64,0.00,,,0.00,,2013-07-04 11:11:00,
2013-07-04 05:22:00,63.0,52.0,29.65,NNE,25,0.0,2.0,67,0.00,,,0.00,,2013-07-04 11:22:00,
2013-07-04 05:33:00,63.0,52.0,29.65,NNE,25,0.0,2.0,67,0.00,,,0.00,,2013-07-04 11:33:00,
2013-07-04 05:43:00,63.0,51.0,29.65,NNE,25,0.0,3.0,66,0.00,,,0.00,,2013-07-04 11:43:00,
2013-07-04 05:53:00,63.0,51.0,29.65,NNE,25,0.0,2.0,66,0.00,,,0.00,,2013-07-04 11:53:00,
2013-07-04 06:02:00,63.0,51.0,29.65,NNE,25,0.0,2.0,66,0.00,,,0.00,,2013-07-04 12:02:00,
2013-07-04 06:11:00,63.0,51.0,29.66,NNE,25,0.0,4.0,64,0.00,,,0.00,,2013-07-04 12:11:00,
2013-07-04 06:22:00,63.0,50.0,29.66,NNE,25,0.0,1.0,63,0.00,,,0.00,,2013-07-04 12:22:00,
2013-07-04 06:33:00,63.0,50.0,29.66,NNE,25,0.0,1.0,63,0.00,,,0.00,,2013-07-04 12:33:00,
2013-07-04 06:43:00,64.0,51.0,29.67,NNE,25,0.0,1.0,63,0.00,,,0.00,,2013-07-04 12:43:00,
2013-07-04 06:52:00,66.0,53.0,29.67,NNE,25,0.0,2.0,62,0.00,,,0.00,,2013-07-04 12:52:00,
2013-07-04 07:02:00,66.0,53.0,29.67,NNE,25,0.0,2.0,62,0.00,,,0.00,,2013-07-04 13:02:00,
2013-07-04 07:12:00,67.0,53.0,29.67,NNE,25,0.0,2.0,61,0.00,,,0.00,,2013-07-04 13:12:00,
2013-07-04 07:23:00,69.0,53.0,29.67,NNE,25,1.0,6.0,57,0.00,,,0.00,,2013-07-04 13:23:00,
2013-07-04 07:33:00,69.0,53.0,29.67,NNE,25,1.0,6.0,57,0.00,,,0.00,,2013-07-04 13:33:00,
2013-07-04 07:43:00,69.0,52.0,29.67,NNE,25,1.0,6.0,55,0.00,,,0.00,,2013-07-04 13:43:00,
2013-07-04 07:53:00,70.0,54.0,29.67,NNE,25,3.0,7.0,57,0.00,,,0.00,,2013-07-04 13:53:00,
2013-07-04 08:02:00,70.0,54.0,29.67,NNE,25,3.0,7.0,57,0.00,,,0.00,,2013-07-04 14:02:00,
2013-07-04 08:11:00,71.0,55.0,29.67,NNE,25,1.0,6.0,58,0.00,,,0.00,,2013-07-04 14:11:00,
2013-07-04 08:22:00,72.0,57.0,29.67,NNE,25,2.0,6.0,59,0.00,,,0.00,,2013-07-04 14:22:00,
2013-07-04 08:33:00,72.0,57.0,29.67,NNE,25,2.0,6.0,59,0.00,,,0.00,,2013-07-04 14:33:00,
2013-07-04 08:43:00,74.0,57.0,29.67,NNE,25,0.0,5.0,56,0.00,,,0.00,,2013-07-04 14:43:00,
2013-07-04 09:02:00,76.0,58.0,29.67,NNE,25,0.0,5.0,53,0.00,,,0.00,,2013-07-04 15:02:00,
2013-07-04 09:11:00,76.0,57.0,29.67,NNE,25,1.0,6.0,52,0.00,,,0.00,,2013-07-04 15:11:00,
2013-07-04 09:33:00,77.0,57.0,29.66,NNE,25,3.0,5.0,50,0.00,,,0.00,,2013-07-04 15:33:00,
2013-07-04 09:43:00,79.0,60.0,29.66,NNE,25,0.0,5.0,52,0.00,,,0.00,,2013-07-04 15:43:00,
2013-07-04 10:02:00,80.0,59.0,29.66,NNE,25,0.0,3.0,49,0.00,,,0.00,,2013-07-04 16:02:00,
2013-07-04 10:11:00,80.0,59.0,29.65,NNE,25,1.0,6.0,49,0.00,,,0.00,,2013-07-04 16:11:00,
2013-07-04 10:22:00,80.0,59.0,29.65,NNE,25,1.0,6.0,49,0.00,,,0.00,,2013-07-04 16:22:00,
2013-07-04 10:33:00,81.0,59.0,29.65,NNE,25,1.0,5.0,47,0.00,,,0.00,,2013-07-04 16:33:00,
2013-07-04 10:42:00,81.0,59.0,29.65,NNE,25,1.0,6.0,47,0.00,,,0.00,,2013-07-04 16:42:00,
2013-07-04 10:52:00,81.0,59.0,29.65,NNE,25,1.0,6.0,47,0.00,,,0.00,,2013-07-04 16:52:00,
2013-07-04 11:01:00,81.0,58.0,29.65,NNE,25,0.0,6.0,46,0.00,,,0.00,,2013-07-04 17:01:00,
2013-07-04 11:11:00,83.0,59.0,29.64,NNE,25,1.0,7.0,45,0.00,,,0.00,,2013-07-04 17:11:00,
2013-07-04 11:22:00,83.0,59.0,29.64,NNE,25,1.0,7.0,45,0.00,,,0.00,,2013-07-04 17:22:00,
2013-07-04 11:33:00,84.0,60.0,29.63,NNE,25,0.0,6.0,44,0.00,,,0.00,,2013-07-04 17:33:00,
2013-07-04 11:43:00,85.0,59.0,29.62,NNE,25,1.0,4.0,41,0.00,,,0.00,,2013-07-04 17:43:00,
2013-07-04 11:53:00,85.0,59.0,29.62,NNE,25,1.0,4.0,41,0.00,,,0.00,,2013-07-04 17:53:00,
2013-07-04 12:01:00,85.0,56.0,29.62,NNE,25,0.0,5.0,37,0.00,,,0.00,,2013-07-04 18:01:00,
2013-07-04 12:11:00,86.0,56.0,29.61,NNE,25,2.0,5.0,36,0.00,,,0.00,,2013-07-04 18:11:00,
2013-07-04 12:22:00,86.0,56.0,29.61,NNE,25,2.0,5.0,36,0.00,,,0.00,,2013-07-04 18:22:00,
2013-07-04 12:33:00,86.0,55.0,29.61,NNE,25,0.0,8.0,35,0.00,,,0.00,,2013-07-04 18:33:00,
2013-07-04 12:43:00,88.0,56.0,29.60,NNE,25,2.0,5.0,34,0.00,,,0.00,,2013-07-04 18:43:00,
2013-07-04 12:52:00,88.0,56.0,29.60,NNE,25,2.0,5.0,34,0.00,,,0.00,,2013-07-04 18:52:00,
2013-07-04 13:01:00,89.0,56.0,29.59,NNE,25,2.0,7.0,33,0.00,,,0.00,,2013-07-04 19:01:00,
2013-07-04 13:12:00,88.0,56.0,29.59,NNE,25,0.0,7.0,34,0.00,,,0.00,,2013-07-04 19:12:00,
2013-07-04 13:22:00,88.0,56.0,29.59,NNE,25,0.0,7.0,34,0.00,,,0.00,,2013-07-04 19:22:00,
2013-07-04 13:33:00,90.0,58.0,29.58,NNE,25,0.0,4.0,34,0.00,,,0.00,,2013-07-04 19:33:00,
2013-07-04 13:43:00,90.0,56.0,29.57,NNE,25,0.0,6.0,32,0.00,,,0.00,,2013-07-04 19:43:00,
2013-07-04 13:53:00,90.0,56.0,29.57,NNE,25,0.0,6.0,32,0.00,,,0.00,,2013-07-04 19:53:00,
2013-07-04 14:01:00,90.0,54.0,29.57,NNE,25,0.0,5.0,30,0.00,,,0.00,,2013-07-04 20:01:00,
2013-07-04 14:11:00,92.0,56.0,29.56,NNE,25,0.0,1.0,30,0.00,,,0.00,,2013-07-04 20:11:00,
2013-07-04 14:22:00,92.0,56.0,29.56,NNE,25,0.0,1.0,30,0.00,,,0.00,,2013-07-04 20:22:00,
2013-07-04 14:33:00,92.0,54.0,29.56,NNE,25,0.0,7.0,28,0.00,,,0.00,,2013-07-04 20:33:00,
2013-07-04 14:42:00,92.0,54.0,29.56,NNE,25,0.0,6.0,28,0.00,,,0.00,,2013-07-04 20:42:00,
2013-07-04 14:53:00,92.0,54.0,29.56,NNE,25,0.0,6.0,28,0.00,,,0.00,,2013-07-04 20:53:00,
2013-07-04 15:01:00,94.0,54.0,29.55,NNE,25,0.0,5.0,26,0.00,,,0.00,,2013-07-04 21:01:00,
2013-07-04 15:11:00,93.0,52.0,29.54,NNE,25,2.0,8.0,25,0.00,,,0.00,,2013-07-04 21:11:00,
2013-07-04 15:22:00,93.0,52.0,29.54,NNE,25,2.0,8.0,25,0.00,,,0.00,,2013-07-04 21:22:00,
2013-07-04 15:32:00,93.0,53.0,29.54,NNE,25,2.0,9.0,26,0.00,,,0.00,,2013-07-04 21:32:00,
2013-07-04 15:43:00,93.0,53.0,29.54,NNE,25,1.0,6.0,26,0.00,,,0.00,,2013-07-04 21:43:00,
2013-07-04 15:52:00,93.0,53.0,29.54,NNE,25,1.0,6.0,26,0.00,,,0.00,,2013-07-04 21:52:00,
2013-07-04 16:01:00,92.0,53.0,29.53,NNE,25,0.0,1.0,27,0.00,,,0.00,,2013-07-04 22:01:00,
2013-07-04 16:11:00,92.0,54.0,29.53,NNE,25,1.0,4.0,28,0.00,,,0.00,,2013-07-04 22:11:00,
2013-07-04 16:22:00,92.0,54.0,29.53,NNE,25,1.0,4.0,28,0.00,,,0.00,,2013-07-04 22:22:00,
2013-07-04 16:33:00,90.0,55.0,29.53,NNE,25,2.0,9.0,31,0.00,,,0.00,,2013-07-04 22:33:00,
2013-07-04 16:43:00,88.0,56.0,29.52,NNE,25,0.0,4.0,34,0.00,,,0.00,,2013-07-04 22:43:00,
2013-07-04 16:52:00,88.0,56.0,29.52,NNE,25,0.0,4.0,34,0.00,,,0.00,,2013-07-04 22:52:00,
2013-07-04 17:01:00,87.0,57.0,29.52,NNE,25,3.0,7.0,36,0.00,,,0.00,,2013-07-04 23:01:00,
2013-07-04 17:11:00,85.0,61.0,29.54,NNE,25,1.0,7.0,44,0.00,,,0.00,,2013-07-04 23:11:00,
2013-07-04 17:23:00,85.0,61.0,29.54,NNE,25,1.0,7.0,44,0.00,,,0.00,,2013-07-04 23:23:00,
2013-07-04 20:02:00,68.0,60.0,29.60,NNE,18,7.0,15.0,76,0.01,,,0.56,,2013-07-05 02:02:00,
2013-07-04 20:11:00,68.0,60.0,29.60,NNE,18,7.0,15.0,76,0.01,,,0.56,,2013-07-05 02:11:00,
2013-07-04 20:21:00,68.0,60.0,29.60,NNE,18,7.0,15.0,76,0.01,,,0.56,,2013-07-05 02:21:00,
2013-07-04 20:32:00,69.0,60.0,29.61,ENE,61,5.0,12.0,73,0.01,,,0.56,,2013-07-05 02:32:00,
2013-07-04 20:42:00,69.0,60.0,29.61,ENE,61,5.0,12.0,73,0.01,,,0.56,,2013-07-05 02:42:00,
2013-07-04 20:52:00,69.0,60.0,29.61,ENE,61,5.0,12.0,73,0.01,,,0.56,,2013-07-05 02:52:00,
2013-07-04 21:02:00,69.0,60.0,29.67,NW,310,4.0,8.0,73,0.00,,,0.56,,2013-07-05 03:02:00,
2013-07-04 21:11:00,69.0,60.0,29.67,NW,310,4.0,8.0,73,0.00,,,0.56,,2013-07-05 03:11:00,
2013-07-04 21:22:00,69.0,60.0,29.67,NW,310,4.0,8.0,73,0.00,,,0.56,,2013-07-05 03:22:00,
2013-07-04 21:32:00,69.0,60.0,29.67,NW,310,4.0,8.0,73,0.00,,,0.56,,2013-07-05 03:32:00,
2013-07-04 21:42:00,68.0,61.0,29.68,NW,310,0.0,5.0,78,0.01,,,0.56,,2013-07-05 03:42:00,
2013-07-04 21:52:00,68.0,61.0,29.68,NW,310,0.0,5.0,78,0.01,,,0.56,,2013-07-05 03:52:00,
2013-07-04 22:01:00,68.0,61.0,29.68,NW,310,0.0,5.0,78,0.01,,,0.56,,2013-07-05 04:01:00,
2013-07-04 22:11:00,66.0,62.0,29.71,NW,310,0.0,0.0,88,0.02,,,0.57,,2013-07-05 04:11:00,
2013-07-04 22:22:00,66.0,62.0,29.71,NW,310,0.0,0.0,88,0.02,,,0.57,,2013-07-05 04:22:00,
2013-07-04 22:33:00,66.0,63.0,29.71,NW,310,1.0,4.0,89,0.02,,,0.59,,2013-07-05 04:33:00,
2013-07-04 22:43:00,66.0,62.0,29.67,NW,310,1.0,5.0,87,0.02,,,0.60,,2013-07-05 04:43:00,
2013-07-04 22:53:00,66.0,62.0,29.67,NW,310,1.0,5.0,87,0.02,,,0.60,,2013-07-05 04:53:00,
2013-07-04 23:01:00,65.0,61.0,29.65,NW,310,4.0,8.0,88,0.02,,,0.60,,2013-07-05 05:01:00,
2013-07-04 23:12:00,65.0,61.0,29.65,NW,310,4.0,8.0,88,0.02,,,0.60,,2013-07-05 05:12:00,
2013-07-04 23:22:00,65.0,61.0,29.64,NW,312,0.0,5.0,86,0.01,,,0.60,,2013-07-05 05:22:00,
2013-07-04 23:33:00,66.0,62.0,29.65,NW,312,0.0,4.0,86,0.00,,,0.60,,2013-07-05 05:33:00,
2013-07-04 23:43:00,66.0,62.0,29.65,WNW,302,6.0,11.0,86,0.00,,,0.60,,2013-07-05 05:43:00,
2013-07-04 23:52:00,66.0,62.0,29.65,WNW,302,6.0,11.0,86,0.00,,,0.60,,2013-07-05 05:52:00,